Time,TemperatureF,DewpointF,PressureIn,WindDirection,WindDirectionDegrees,WindSpeedMPH,WindSpeedGustMPH,Humidity,HourlyPrecipIn,Conditions,Clouds,dailyrainin,SoftwareType,DateUTC
2013-07-23 00:02:00,82.0,-99.9,30.10,North,-999,-999.0,-999.0,-999,-99.99,,,-99.99,,2013-07-23 04:02:00,
2013-07-23 00:11:00,83.0,-99.9,30.10,North,-999,-999.0,-999.0,-999,-99.99,,,-99.99,,2013-07-23 04:11:00,
2013-07-23 00:22:00,83.0,-99.9,30.11,North,-999,-999.0,-999.0,-999,-99.99,,,-99.99,,2013-07-23 04:22:00,
2013-07-23 00:43:00,82.0,-99.9,30.11,North,-999,-999.0,-999.0,-999,-99.99,,,-99.99,,2013-07-23 04:43:00,
2013-07-23 01:33:00,82.0,-99.9,-100.00,North,-999,-999.0,-999.0,-999,-99.99,,,-99.99,,2013-07-23 05:33:00,
2013-07-23 01:44:00,82.0,-99.9,30.10,North,-999,-999.0,-999.0,-999,-99.99,,,-99.99,,2013-07-23 05:44:00,
2013-07-23 02:33:00,82.0,-99.9,-100.00,North,-999,-999.0,-999.0,-999,-99.99,,,-99.99,,2013-07-23 06:33:00,
2013-07-23 02:42:00,82.0,-99.9,30.07,North,-999,-999.0,-999.0,-999,-99.99,,,-99.99,,2013-07-23 06:42:00,
2013-07-23 02:52:00,82.0,-99.9,-100.00,North,-999,-999.0,-999.0,-999,-99.99,,,-99.99,,2013-07-23 06:52:00,
2013-07-23 03:02:00,82.0,-99.9,30.07,North,-999,-999.0,-999.0,-999,-99.99,,,-99.99,,2013-07-23 07:02:00,
2013-07-23 03:33:00,82.0,-99.9,-100.00,North,-999,-999.0,-999.0,-999,-99.99,,,-99.99,,2013-07-23 07:33:00,
2013-07-23 03:43:00,82.0,-99.9,-100.00,North,-999,-999.0,-999.0,-999,-99.99,,,-99.99,,2013-07-23 07:43:00,
2013-07-23 04:01:00,82.0,-99.9,30.06,North,-999,-999.0,-999.0,-999,-99.99,,,-99.99,,2013-07-23 08:01:00,
2013-07-23 06:02:00,82.0,-99.9,-100.00,North,-999,-999.0,-999.0,-999,-99.99,,,-99.99,,2013-07-23 10:02:00,
2013-07-23 07:43:00,82.0,-99.9,30.06,North,-999,-999.0,-999.0,-999,-99.99,,,-99.99,,2013-07-23 11:43:00,
2013-07-23 08:22:00,83.0,-99.9,30.06,North,-999,-999.0,-999.0,-999,-99.99,,,-99.99,,2013-07-23 12:22:00,
2013-07-23 08:33:00,84.0,-99.9,30.06,North,-999,-999.0,-999.0,-999,-99.99,,,-99.99,,2013-07-23 12:33:00,
2013-07-23 08:43:00,85.0,-99.9,30.07,North,-999,-999.0,-999.0,-999,-99.99,,,-99.99,,2013-07-23 12:43:00,
2013-07-23 09:02:00,86.0,-99.9,30.07,North,-999,-999.0,-999.0,-999,-99.99,,,-99.99,,2013-07-23 13:02:00,
2013-07-23 10:12:00,87.0,-99.9,30.09,North,-999,-999.0,-999.0,-999,-99.99,,,-99.99,,2013-07-23 14:12:00,
2013-07-23 10:22:00,87.0,-99.9,30.09,North,-999,-999.0,-999.0,-999,-99.99,,,-99.99,,2013-07-23 14:22:00,
2013-07-23 10:33:00,88.0,-99.9,30.09,North,-999,-999.0,-999.0,-999,-99.99,,,-99.99,,2013-07-23 14:33:00,
2013-07-23 10:44:00,87.0,-99.9,30.08,North,-999,-999.0,-999.0,-999,-99.99,,,-99.99,,2013-07-23 14:44:00,
2013-07-23 11:03:00,87.0,-99.9,30.09,North,-999,-999.0,-999.0,-999,-99.99,,,-99.99,,2013-07-23 15:03:00,
2013-07-23 12:43:00,88.0,-99.9,-100.00,North,-999,-999.0,-999.0,-999,-99.99,,,-99.99,,2013-07-23 16:43:00,
2013-07-23 13:11:00,88.0,-99.9,30.07,North,-999,-999.0,-999.0,-999,-99.99,,,-99.99,,2013-07-23 17:11:00,
2013-07-23 13:22:00,89.0,-99.9,30.07,North,-999,-999.0,-999.0,-999,-99.99,,,-99.99,,2013-07-23 17:22:00,
2013-07-23 13:42:00,89.0,-99.9,30.06,North,-999,-999.0,-999.0,-999,-99.99,,,-99.99,,2013-07-23 17:42:00,
2013-07-23 14:49:00,90.0,-99.9,30.05,North,-999,-999.0,-999.0,-999,-99.99,,,-99.99,,2013-07-23 18:49:00,
2013-07-23 15:51:00,87.0,-99.9,-100.00,North,-999,-999.0,-999.0,-999,-99.99,,,-99.99,,2013-07-23 19:51:00,
2013-07-23 16:15:00,89.0,-99.9,-100.00,North,-999,-999.0,-999.0,-999,-99.99,,,-99.99,,2013-07-23 20:15:00,
2013-07-23 16:25:00,89.0,-99.9,30.03,North,-999,-999.0,-999.0,-999,-99.99,,,-99.99,,2013-07-23 20:25:00,
2013-07-23 16:48:00,89.0,-99.9,-100.00,North,-999,-999.0,-999.0,-999,-99.99,,,-99.99,,2013-07-23 20:48:00,
2013-07-23 17:05:00,89.0,-99.9,30.02,North,-999,-999.0,-999.0,-999,-99.99,,,-99.99,,2013-07-23 21:05:00,
2013-07-23 18:06:00,88.0,-99.9,30.02,North,-999,-999.0,-999.0,-999,-99.99,,,-99.99,,2013-07-23 22:06:00,
2013-07-23 18:25:00,88.0,-99.9,-100.00,North,-999,-999.0,-999.0,-999,-99.99,,,-99.99,,2013-07-23 22:25:00,
2013-07-23 18:47:00,88.0,-99.9,30.00,North,-999,-999.0,-999.0,-999,-99.99,,,-99.99,,2013-07-23 22:47:00,
2013-07-23 19:08:00,87.0,-99.9,-100.00,North,-999,-999.0,-999.0,-999,-99.99,,,-99.99,,2013-07-23 23:08:00,
2013-07-23 19:49:00,85.0,-99.9,-100.00,North,-999,-999.0,-999.0,-999,-99.99,,,-99.99,,2013-07-23 23:49:00,
2013-07-23 20:16:00,85.0,-99.9,-100.00,North,-999,-999.0,-999.0,-999,-99.99,,,-99.99,,2013-07-24 00:16:00,
2013-07-23 20:34:00,84.0,-99.9,30.01,North,-999,-999.0,-999.0,-999,-99.99,,,-99.99,,2013-07-24 00:34:00,
2013-07-23 20:59:00,83.0,-99.9,-100.00,North,-999,-999.0,-999.0,-999,-99.99,,,-99.99,,2013-07-24 00:59:00,
2013-07-23 22:05:00,83.0,-99.9,30.02,North,-999,-999.0,-999.0,-999,-99.99,,,-99.99,,2013-07-24 02:05:00,
2013-07-23 22:28:00,83.0,-99.9,-100.00,North,-999,-999.0,-999.0,-999,-99.99,,,-99.99,,2013-07-24 02:28:00,
2013-07-23 22:41:00,82.0,-99.9,-100.00,North,-999,-999.0,-999.0,-999,-99.99,,,-99.99,,2013-07-24 02:41:00,
2013-07-23 23:26:00,83.0,-99.9,-100.00,North,-999,-999.0,-999.0,-999,-99.99,,,-99.99,,2013-07-24 03:26:00,
2013-07-23 23:47:00,83.0,-99.9,30.03,North,-999,-999.0,-999.0,-999,-99.99,,,-99.99,,2013-07-24 03:47:00,